GSAT0232 (GALILEO 32)

Last updated on Thu Jul 03 2025 00:02:34 GMT+0000 (Coordinated Universal Time)

1 61182U 24167A 25183.59705328 .00000036 00000+0 00000+0 0 9993 2 61182 55.2967 230.9045 0005114 226.4079 89.4859 1.70474354 4910
UTC large
Height (km)
Speed (km/s)
/
Latitude / Longitude
Inclination (degrees)
Orbital Period (minutes)
Azimuth
Elevation
Range (km)
Doppler Factor

Next 0 passes for location: London (51.5072 / 0.1276)

Sorry there are no passes over London.